AXM6219 WMKN-WMKK

Flight info

Callsign AXM6219
Flight time 0h 44m
Altitude 26000
Route LASOB1B LASOB Y346 PULIP PULIP2J
Aircraft A20N/M-SDE2E3FGHIRWXY/LB1

Departure

Time 2026-04-25 04:43
Airport Sultan Mahmud Airport (WMKN)

Arrival

Time 2026-04-25 05:27
Airport Kuala Lumpur International Airport (WMKK)
Time Latitude Longitude Altitude Speed Heading
2026-04-25 04:15 5.37899 103.10401 25 ft 0 kts 135°
2026-04-25 04:31 5.37901 103.10399 25 ft 1 kts 135°
2026-04-25 04:31 5.37914 103.10387 31 ft 3 kts 141°
2026-04-25 04:31 5.37930 103.10375 30 ft 3 kts 148°
2026-04-25 04:32 5.37948 103.10365 28 ft 3 kts 155°
2026-04-25 04:32 5.37967 103.10357 26 ft 3 kts 162°
2026-04-25 04:32 5.37986 103.10352 30 ft 3 kts 171°
2026-04-25 04:32 5.38007 103.10350 29 ft 3 kts 187°
2026-04-25 04:33 5.38024 103.10354 30 ft 2 kts 218°
2026-04-25 04:33 5.38027 103.10357 31 ft 0 kts 225°
2026-04-25 04:35 5.38026 103.10355 30 ft 2 kts 224°
2026-04-25 04:35 5.37999 103.10312 25 ft 10 kts 256°
2026-04-25 04:36 5.38021 103.10258 26 ft 8 kts 309°
2026-04-25 04:36 5.38040 103.10238 27 ft 0 kts 314°
2026-04-25 04:36 5.38064 103.10214 28 ft 5 kts 316°
2026-04-25 04:37 5.38096 103.10198 28 ft 6 kts 344°
2026-04-25 04:37 5.38144 103.10214 28 ft 9 kts 37°
2026-04-25 04:37 5.38179 103.10248 28 ft 12 kts 46°
2026-04-25 04:37 5.38251 103.10317 28 ft 17 kts 44°
2026-04-25 04:38 5.38314 103.10380 28 ft 10 kts 46°
2026-04-25 04:38 5.38389 103.10453 28 ft 9 kts 44°
2026-04-25 04:38 5.38421 103.10485 28 ft 8 kts 44°
2026-04-25 04:38 5.38466 103.10529 28 ft 9 kts 45°
2026-04-25 04:39 5.38524 103.10587 28 ft 15 kts 44°
2026-04-25 04:39 5.38609 103.10671 29 ft 20 kts 47°
2026-04-25 04:39 5.38632 103.10694 29 ft 5 kts 44°
2026-04-25 04:39 5.38672 103.10732 29 ft 11 kts 44°
2026-04-25 04:40 5.38742 103.10800 29 ft 17 kts 44°
2026-04-25 04:40 5.38838 103.10894 29 ft 22 kts 45°
2026-04-25 04:40 5.38952 103.11005 29 ft 22 kts 44°
2026-04-25 04:40 5.39056 103.11108 28 ft 19 kts 44°
2026-04-25 04:41 5.39176 103.11175 28 ft 14 kts 18°
2026-04-25 04:41 5.39212 103.11228 28 ft 6 kts 137°
2026-04-25 04:41 5.39164 103.11213 28 ft 10 kts 224°
2026-04-25 04:41 5.39123 103.11175 28 ft 0 kts 224°
2026-04-25 04:42 5.39120 103.11172 28 ft 4 kts 224°
2026-04-25 04:43 5.38910 103.10964 29 ft 101 kts 224°
2026-04-25 04:43 5.38172 103.10242 96 ft 188 kts 224°
2026-04-25 04:43 5.37179 103.09290 1067 ft 207 kts 221°
2026-04-25 04:43 5.36142 103.08256 2441 ft 210 kts 229°
2026-04-25 04:44 5.35404 103.06937 3430 ft 231 kts 245°
2026-04-25 04:44 5.34775 103.05345 4441 ft 254 kts 248°
2026-04-25 04:44 5.34136 103.03618 5493 ft 272 kts 248°
2026-04-25 04:44 5.33454 103.01819 6752 ft 279 kts 248°
2026-04-25 04:45 5.32738 102.99988 7983 ft 285 kts 247°
2026-04-25 04:45 5.31991 102.98119 9167 ft 292 kts 246°
2026-04-25 04:45 5.31218 102.96204 10284 ft 301 kts 246°
2026-04-25 04:45 5.30399 102.94184 10942 ft 325 kts 246°
2026-04-25 04:46 5.29512 102.92002 11480 ft 349 kts 246°
2026-04-25 04:46 5.28583 102.89710 12389 ft 358 kts 246°
2026-04-25 04:46 5.27641 102.87380 13400 ft 364 kts 246°
2026-04-25 04:46 5.26679 102.85005 14297 ft 370 kts 247°
2026-04-25 04:47 5.25702 102.82591 15152 ft 377 kts 246°
2026-04-25 04:47 5.24709 102.80141 16000 ft 382 kts 246°
2026-04-25 04:47 5.23698 102.77648 16817 ft 389 kts 246°
2026-04-25 04:47 5.22670 102.75114 17597 ft 395 kts 246°
2026-04-25 04:48 5.21596 102.72554 18363 ft 401 kts 242°
2026-04-25 04:48 5.20026 102.70248 19085 ft 401 kts 226°
2026-04-25 04:48 5.17897 102.68452 19835 ft 401 kts 210°
2026-04-25 04:48 5.15430 102.67115 20538 ft 405 kts 206°
2026-04-25 04:49 5.12917 102.65811 21257 ft 409 kts 206°
2026-04-25 04:49 5.10375 102.64490 21992 ft 413 kts 206°
2026-04-25 04:49 5.07849 102.63173 22663 ft 417 kts 206°
2026-04-25 04:49 5.05259 102.61819 23358 ft 421 kts 206°
2026-04-25 04:50 5.02650 102.60452 23968 ft 425 kts 206°
2026-04-25 04:50 5.00021 102.59074 24588 ft 427 kts 206°
2026-04-25 04:50 4.97380 102.57690 25191 ft 430 kts 206°
2026-04-25 04:50 4.94720 102.56295 25678 ft 433 kts 206°
2026-04-25 04:51 4.92052 102.54897 25862 ft 434 kts 206°
2026-04-25 04:51 4.89362 102.53488 25909 ft 435 kts 206°
2026-04-25 04:51 4.86675 102.52080 25914 ft 434 kts 206°
2026-04-25 04:51 4.83996 102.50677 25910 ft 434 kts 206°
2026-04-25 04:52 4.81334 102.49282 25908 ft 426 kts 206°
2026-04-25 04:52 4.78773 102.47940 25910 ft 404 kts 206°
2026-04-25 04:52 4.76341 102.46664 25913 ft 386 kts 206°
2026-04-25 04:52 4.73986 102.45431 25916 ft 390 kts 206°
2026-04-25 04:53 4.71568 102.44166 25914 ft 392 kts 206°
2026-04-25 04:53 4.69141 102.42896 25914 ft 391 kts 206°
2026-04-25 04:53 4.66729 102.41634 25914 ft 391 kts 206°
2026-04-25 04:53 4.64313 102.40369 25912 ft 391 kts 206°
2026-04-25 04:54 4.61897 102.39104 25912 ft 391 kts 206°
2026-04-25 04:54 4.59485 102.37841 25911 ft 391 kts 206°
2026-04-25 04:54 4.57076 102.36580 25910 ft 391 kts 206°
2026-04-25 04:54 4.54698 102.35334 25910 ft 380 kts 206°
2026-04-25 04:55 4.52384 102.34122 25911 ft 372 kts 206°
2026-04-25 04:55 4.50107 102.32931 25913 ft 377 kts 206°
2026-04-25 04:55 4.47747 102.31697 25912 ft 377 kts 206°
2026-04-25 04:55 4.45457 102.30500 25911 ft 376 kts 206°
2026-04-25 04:56 4.43133 102.29284 25908 ft 376 kts 206°
2026-04-25 04:56 4.40801 102.28064 25910 ft 376 kts 206°
2026-04-25 04:56 4.38475 102.26847 25910 ft 376 kts 206°
2026-04-25 04:56 4.36155 102.25633 25905 ft 376 kts 206°
2026-04-25 04:57 4.33833 102.24418 25905 ft 376 kts 206°
2026-04-25 04:57 4.31543 102.23221 25905 ft 376 kts 206°
2026-04-25 04:57 4.29219 102.22006 25902 ft 376 kts 206°
2026-04-25 04:57 4.26895 102.20791 25906 ft 376 kts 206°
2026-04-25 04:58 4.24575 102.19577 25906 ft 376 kts 206°
2026-04-25 04:58 4.22253 102.18363 25906 ft 376 kts 206°
2026-04-25 04:58 4.19936 102.17152 25904 ft 376 kts 206°
2026-04-25 04:58 4.17614 102.15938 25903 ft 375 kts 206°
2026-04-25 04:59 4.15299 102.14728 25904 ft 376 kts 206°
2026-04-25 04:59 4.12982 102.13517 25905 ft 376 kts 206°
2026-04-25 04:59 4.10660 102.12304 25907 ft 379 kts 206°
2026-04-25 04:59 4.08248 102.11045 25909 ft 402 kts 206°
2026-04-25 05:00 4.05736 102.09735 25904 ft 422 kts 206°
2026-04-25 05:00 4.03091 102.08354 25906 ft 433 kts 206°
2026-04-25 05:00 4.00384 102.06938 25910 ft 433 kts 206°
2026-04-25 05:00 3.97750 102.05561 25909 ft 432 kts 206°
2026-04-25 05:01 3.95083 102.04166 25910 ft 432 kts 206°
2026-04-25 05:01 3.92419 102.02774 25911 ft 432 kts 206°
2026-04-25 05:01 3.89788 102.01399 25911 ft 417 kts 206°
2026-04-25 05:01 3.87287 102.00091 25912 ft 395 kts 206°
2026-04-25 05:02 3.84918 101.98852 25910 ft 374 kts 206°
2026-04-25 05:02 3.82637 101.97661 25913 ft 371 kts 206°
2026-04-25 05:02 3.80322 101.96453 25912 ft 377 kts 206°
2026-04-25 05:02 3.77999 101.95242 25916 ft 375 kts 206°
2026-04-25 05:03 3.75695 101.94040 25916 ft 374 kts 206°
2026-04-25 05:03 3.73377 101.92830 25916 ft 375 kts 206°
2026-04-25 05:03 3.71061 101.91622 25834 ft 376 kts 206°
2026-04-25 05:03 3.68703 101.90522 25623 ft 372 kts 199°
2026-04-25 05:04 3.66231 101.89809 25222 ft 368 kts 189°
2026-04-25 05:04 3.63735 101.89522 24729 ft 364 kts 180°
2026-04-25 05:04 3.61280 101.89454 24252 ft 362 kts 180°
2026-04-25 05:04 3.58774 101.89375 23773 ft 360 kts 180°
2026-04-25 05:05 3.56282 101.89290 23279 ft 357 kts 180°
2026-04-25 05:05 3.53812 101.89204 22915 ft 353 kts 180°
2026-04-25 05:05 3.51346 101.89119 22552 ft 355 kts 180°
2026-04-25 05:05 3.48882 101.89034 22187 ft 353 kts 180°
2026-04-25 05:06 3.46435 101.88949 21831 ft 350 kts 180°
2026-04-25 05:06 3.44006 101.88865 21473 ft 348 kts 180°
2026-04-25 05:06 3.41585 101.88782 21113 ft 347 kts 180°
2026-04-25 05:06 3.39176 101.88699 20761 ft 346 kts 180°
2026-04-25 05:07 3.36810 101.88617 20412 ft 343 kts 180°
2026-04-25 05:07 3.34420 101.88535 20064 ft 343 kts 180°
2026-04-25 05:07 3.33618 101.88507 19939 ft 342 kts 180°
2026-04-25 05:07 3.31135 101.88422 19575 ft 340 kts 180°
2026-04-25 05:08 3.28772 101.88342 19222 ft 338 kts 180°
2026-04-25 05:08 3.26426 101.88261 18878 ft 337 kts 180°
2026-04-25 05:08 3.24088 101.88180 18533 ft 336 kts 180°
2026-04-25 05:08 3.21786 101.88101 18190 ft 333 kts 180°
2026-04-25 05:09 3.19464 101.88021 17815 ft 333 kts 180°
2026-04-25 05:09 3.17160 101.87942 17481 ft 330 kts 180°
2026-04-25 05:09 3.14871 101.87864 17145 ft 329 kts 180°
2026-04-25 05:09 3.12598 101.87786 16806 ft 326 kts 180°
2026-04-25 05:10 3.10335 101.87708 16478 ft 325 kts 180°
2026-04-25 05:10 3.08080 101.87630 16147 ft 322 kts 180°
2026-04-25 05:10 3.05843 101.87553 15823 ft 320 kts 180°
2026-04-25 05:10 3.03656 101.87477 15706 ft 307 kts 180°
2026-04-25 05:11 3.01562 101.87403 15314 ft 298 kts 180°
2026-04-25 05:11 2.99666 101.87338 14887 ft 296 kts 180°
2026-04-25 05:11 2.98687 101.87305 14740 ft 294 kts 180°
2026-04-25 05:12 2.94939 101.87177 14192 ft 286 kts 180°
2026-04-25 05:12 2.92944 101.87109 13895 ft 287 kts 180°
2026-04-25 05:12 2.90962 101.87042 13606 ft 284 kts 180°
2026-04-25 05:12 2.88991 101.86974 13420 ft 284 kts 180°
2026-04-25 05:13 2.87015 101.86773 13137 ft 286 kts 195°
2026-04-25 05:13 2.85282 101.85834 12792 ft 287 kts 220°
2026-04-25 05:13 2.84031 101.84298 12356 ft 290 kts 234°
2026-04-25 05:13 2.82912 101.82617 11906 ft 291 kts 235°
2026-04-25 05:14 2.81661 101.81033 11459 ft 288 kts 218°
2026-04-25 05:14 2.79914 101.80106 11019 ft 285 kts 193°
2026-04-25 05:14 2.77968 101.80039 10597 ft 281 kts 167°
2026-04-25 05:15 2.74633 101.81965 9798 ft 277 kts 141°
2026-04-25 05:15 2.73160 101.83135 9485 ft 271 kts 141°
2026-04-25 05:15 2.71664 101.84273 9077 ft 269 kts 143°
2026-04-25 05:15 2.70148 101.85362 8666 ft 267 kts 144°
2026-04-25 05:16 2.68629 101.86409 8111 ft 265 kts 145°
2026-04-25 05:16 2.67111 101.87431 7678 ft 260 kts 145°
2026-04-25 05:16 2.65604 101.88441 7278 ft 262 kts 145°
2026-04-25 05:16 2.64101 101.89445 7063 ft 254 kts 145°
2026-04-25 05:17 2.62666 101.90401 7012 ft 240 kts 145°
2026-04-25 05:17 2.61308 101.91306 6923 ft 230 kts 145°
2026-04-25 05:17 2.60004 101.92177 6856 ft 221 kts 144°
2026-04-25 05:17 2.58751 101.93016 6775 ft 212 kts 144°
2026-04-25 05:18 2.57555 101.93819 6720 ft 203 kts 144°
2026-04-25 05:18 2.56395 101.94598 6543 ft 202 kts 144°
2026-04-25 05:18 2.55227 101.95382 6220 ft 209 kts 144°
2026-04-25 05:18 2.53887 101.95987 5740 ft 218 kts 171°
2026-04-25 05:19 2.52425 101.95737 5534 ft 212 kts 208°
2026-04-25 05:19 2.51371 101.94755 5305 ft 208 kts 236°
2026-04-25 05:19 2.50583 101.93542 5001 ft 208 kts 236°
2026-04-25 05:19 2.49789 101.92338 4704 ft 207 kts 236°
2026-04-25 05:20 2.48991 101.91144 4374 ft 207 kts 236°
2026-04-25 05:20 2.48191 101.89948 4206 ft 204 kts 239°
2026-04-25 05:20 2.47847 101.88604 4062 ft 201 kts 276°
2026-04-25 05:20 2.48335 101.87328 3842 ft 198 kts 311°
2026-04-25 05:21 2.49400 101.86486 3627 ft 195 kts 330°
2026-04-25 05:21 2.50549 101.85756 3562 ft 195 kts 329°
2026-04-25 05:21 2.51674 101.85020 3510 ft 190 kts 328°
2026-04-25 05:21 2.52790 101.84276 3507 ft 198 kts 329°
2026-04-25 05:22 2.53932 101.83530 3515 ft 196 kts 329°
2026-04-25 05:22 2.55071 101.82775 3507 ft 195 kts 328°
2026-04-25 05:22 2.56197 101.82017 3476 ft 198 kts 328°
2026-04-25 05:22 2.57355 101.81236 3252 ft 203 kts 328°
2026-04-25 05:23 2.58539 101.80437 2982 ft 206 kts 327°
2026-04-25 05:23 2.59736 101.79632 2722 ft 209 kts 328°
2026-04-25 05:23 2.60948 101.78814 2423 ft 211 kts 327°
2026-04-25 05:23 2.62138 101.78011 2183 ft 200 kts 327°
2026-04-25 05:24 2.62888 101.77505 2001 ft 193 kts 327°
2026-04-25 05:24 2.64314 101.76543 1681 ft 177 kts 326°
2026-04-25 05:24 2.65311 101.75873 1449 ft 169 kts 326°
2026-04-25 05:24 2.65953 101.75440 1298 ft 166 kts 326°
2026-04-25 05:25 2.67163 101.74624 1030 ft 146 kts 326°
2026-04-25 05:25 2.67706 101.74259 928 ft 139 kts 324°
2026-04-25 05:25 2.68472 101.73741 777 ft 143 kts 326°
2026-04-25 05:25 2.69555 101.73012 525 ft 138 kts 326°
2026-04-25 05:26 2.70360 101.72470 335 ft 139 kts 326°
2026-04-25 05:26 2.71161 101.71931 142 ft 139 kts 327°
2026-04-25 05:26 2.71703 101.71574 70 ft 137 kts 327°
2026-04-25 05:26 2.72383 101.71125 55 ft 114 kts 323°
2026-04-25 05:27 2.72916 101.70742 54 ft 89 kts 326°
2026-04-25 05:27 2.73382 101.70430 59 ft 73 kts 324°
2026-04-25 05:27 2.73772 101.70167 54 ft 61 kts 326°
2026-04-25 05:27 2.74021 101.69998 55 ft 23 kts 326°
2026-04-25 05:28 2.74165 101.69904 56 ft 29 kts 326°
2026-04-25 05:28 2.74232 101.69795 60 ft 0 kts 268°
2026-04-25 05:28 2.74229 101.69770 60 ft 7 kts 258°
2026-04-25 05:28 2.74201 101.69695 56 ft 14 kts 275°
2026-04-25 05:29 2.74242 101.69612 53 ft 15 kts 265°
2026-04-25 05:29 2.74219 101.69546 50 ft 7 kts 289°
2026-04-25 05:29 2.74270 101.69501 48 ft 13 kts 328°
2026-04-25 05:29 2.74366 101.69436 46 ft 20 kts 326°
2026-04-25 05:30 2.74447 101.69383 46 ft 13 kts 326°
2026-04-25 05:30 2.74490 101.69327 46 ft 6 kts 252°
2026-04-25 05:30 2.74457 101.69270 44 ft 14 kts 238°
2026-04-25 05:30 2.74391 101.69175 42 ft 18 kts 235°
2026-04-25 05:31 2.74321 101.69069 42 ft 18 kts 234°
2026-04-25 05:31 2.74289 101.68991 42 ft 3 kts 313°
2026-04-25 05:31 2.74315 101.68974 42 ft 5 kts 327°
2026-04-25 05:31 2.74345 101.68954 41 ft 6 kts 326°
2026-04-25 05:32 2.74350 101.68950 42 ft 0 kts 326°